Location: Moscow Pond
(43.6842°N, 73.2366°W)
Time: 00:56:35
(UTC+00:00)

Cosmos 2278 Rocket - Pass Details

Date: 08 November 2025
Orbit: 841 x 843 km, 71.0° (Epoch: 05 December)

Event Time Altitude Azimuth Distance (km) Brightness Sun altitude
Exits shadow 10:17:09 - 331° (NNW) 2,808 4.6 -14.9°
Reaches altitude 10° 10:18:03 10° 330° (NNW) 2,467 4.3 -14.8°
Maximum altitude 10:23:40 68° 249° (WSW) 906 2.2 -13.8°
Drops below altitude 10° 10:29:15 10° 167° (SSE) 2,451 4.9 -12.8°
Sets 10:31:41 0° 165° (SSE) 3,382 5.7 -12.3°
